This is the latest recevied weather packets stored in our database for station/object KD8OZS. If no packets are shown the sender has not sent any weather packets the latest 10 day(s).
| Time | Temp. | Humidity | Pressure | Rain* | Wind** | Luminosity | Snow |
|---|---|---|---|---|---|---|---|
| 1777581093 | 13.33° C | 59% | 1006.7 hPa | 0 mm | - | 559 W/m² | - |
| 1777580792 | 12.78° C | 56% | 1006.7 hPa | 0 mm | - | 509 W/m² | - |
| 1777580489 | 11.67° C | 61% | 1006.9 hPa | 0 mm | - | 255 W/m² | - |
| 1777580183 | 12.22° C | 58% | 1006.9 hPa | 0 mm | - | 253 W/m² | - |
| 1777579881 | 11.67° C | 59% | 1006.9 hPa | 0 mm | - | 567 W/m² | - |
| 1777579580 | 11.67° C | 60% | 1006.7 hPa | 0 mm | - | 230 W/m² | - |
| 1777579274 | 12.22° C | 57% | 1007 hPa | 0 mm | - | 209 W/m² | - |
| 1777578970 | 11.67° C | 60% | 1007 hPa | 0 mm | - | 717 W/m² | - |
| 1777578666 | 11.11° C | 60% | 1007 hPa | 0 mm | - | 336 W/m² | - |
| 1777578364 | 11.11° C | 63% | 1006.9 hPa | 0 mm | - | 206 W/m² | - |
| 1777578061 | 11.11° C | 60% | 1006.9 hPa | 0 mm | - | 237 W/m² | - |
| 1777577756 | 11.67° C | 62% | 1007 hPa | 0 mm | - | 273 W/m² | - |
| 1777577453 | 11.11° C | 64% | 1007 hPa | 0 mm | - | 269 W/m² | - |
| 1777577150 | 11.11° C | 63% | 1007.1 hPa | 0 mm | - | 247 W/m² | - |
| 1777576846 | 11.67° C | 64% | 1006.9 hPa | 0 mm | - | 241 W/m² | - |
| 1777576545 | 12.22° C | 65% | 1007 hPa | 0 mm | - | 232 W/m² | - |
| 1777576242 | 11.67° C | 69% | 1007.3 hPa | 0 mm | - | 814 W/m² | - |
| 1777575938 | 11.67° C | 68% | 1007.3 hPa | 0 mm | - | 638 W/m² | - |
| 1777575634 | 11.11° C | 69% | 1007.2 hPa | 0 mm | - | 260 W/m² | - |
| 1777575330 | 11.67° C | 68% | 1007.2 hPa | 0 mm | - | 732 W/m² | - |
| 1777575026 | 11.11° C | 69% | 1006.9 hPa | 0 mm | - | 700 W/m² | - |
| 1777574722 | 11.11° C | 70% | 1007.2 hPa | 0 mm | - | 615 W/m² | - |
| 1777574420 | 11.11° C | 75% | 1007.3 hPa | 0 mm | - | 599 W/m² | - |
| 1777574115 | 10.56° C | 73% | 1007.2 hPa | 0 mm | - | 396 W/m² | - |
| 1777573811 | 10° C | 78% | 1007.4 hPa | 0 mm | - | 539 W/m² | - |
* Rain latest hour (hover to see other rain measurements)
** Current wind speed in m/s (hover to see current wind gust speed)